owner,sensor,date,latitude,longitude,vertical_datum,sea_water_practical_salinity,qcFlag 
NERRS,ioos:station:NOAA.NERRS:wkbfrwq:1,2019-03-01T03:45:00Z,30.4162,-87.8228,2.5,2.7,1111122 
NERRS,ioos:station:NOAA.NERRS:wkbfrwq:1,2019-03-01T04:45:00Z,30.4162,-87.8228,2.37,2.5,1111122 
NERRS,ioos:station:NOAA.NERRS:wkbfrwq:1,2019-03-01T05:45:00Z,30.4162,-87.8228,2.3,2.1,1111122 
NERRS,ioos:station:NOAA.NERRS:wkbfrwq:1,2019-03-01T06:45:00Z,30.4162,-87.8228,2.27,2.3,1111122 
NERRS,ioos:station:NOAA.NERRS:wkbfrwq:1,2019-03-01T07:45:00Z,30.4162,-87.8228,2.23,2.1,1111122 
NERRS,ioos:station:NOAA.NERRS:wkbfrwq:1,2019-03-01T08:45:00Z,30.4162,-87.8228,2.19,1.9,1111122 
NERRS,ioos:station:NOAA.NERRS:wkbfrwq:1,2019-03-01T09:45:00Z,30.4162,-87.8228,2.12,1.8,1111122 
NERRS,ioos:station:NOAA.NERRS:wkbfrwq:1,2019-03-01T10:45:00Z,30.4162,-87.8228,2.11,2.0,1111122 
NERRS,ioos:station:NOAA.NERRS:wkbfrwq:1,2019-03-01T11:45:00Z,30.4162,-87.8228,2.12,2.0,1111122 
NERRS,ioos:station:NOAA.NERRS:wkbfrwq:1,2019-03-01T12:45:00Z,30.4162,-87.8228,2.11,1.6,1111122 
NERRS,ioos:station:NOAA.NERRS:wkbfrwq:1,2019-03-01T13:45:00Z,30.4162,-87.8228,2.11,1.8,1111122 
NERRS,ioos:station:NOAA.NERRS:wkbfrwq:1,2019-03-01T14:45:00Z,30.4162,-87.8228,2.18,2.0,1111122 
NERRS,ioos:station:NOAA.NERRS:wkbfrwq:1,2019-03-01T15:45:00Z,30.4162,-87.8228,2.27,2.0,1111122 
NERRS,ioos:station:NOAA.NERRS:wkbfrwq:1,2019-03-01T16:45:00Z,30.4162,-87.8228,2.37,2.3,1111122 
NERRS,ioos:station:NOAA.NERRS:wkbfrwq:1,2019-03-01T17:45:00Z,30.4162,-87.8228,2.42,2.3,1111122 
NERRS,ioos:station:NOAA.NERRS:wkbfrwq:1,2019-03-01T18:45:00Z,30.4162,-87.8228,2.47,2.3,1111122 
NERRS,ioos:station:NOAA.NERRS:wkbfrwq:1,2019-03-01T19:45:00Z,30.4162,-87.8228,2.49,2.4,1111122 
NERRS,ioos:station:NOAA.NERRS:wkbfrwq:1,2019-03-01T20:45:00Z,30.4162,-87.8228,2.53,2.4,1111122 
NERRS,ioos:station:NOAA.NERRS:wkbfrwq:1,2019-03-01T21:45:00Z,30.4162,-87.8228,2.58,2.5,1111122 
NERRS,ioos:station:NOAA.NERRS:wkbfrwq:1,2019-03-01T22:45:00Z,30.4162,-87.8228,2.6,2.5,1111122 
NERRS,ioos:station:NOAA.NERRS:wkbfrwq:1,2019-03-01T23:45:00Z,30.4162,-87.8228,2.58,2.5,1111122 
NERRS,ioos:station:NOAA.NERRS:wkbfrwq:1,2019-03-02T00:45:00Z,30.4162,-87.8228,2.55,2.4,1111122 
NERRS,ioos:station:NOAA.NERRS:wkbfrwq:1,2019-03-02T01:45:00Z,30.4162,-87.8228,2.58,2.4,1111122 
NERRS,ioos:station:NOAA.NERRS:wkbfrwq:1,2019-03-02T02:45:00Z,30.4162,-87.8228,2.53,2.4,1111122 
NERRS,ioos:station:NOAA.NERRS:wkbfrwq:1,2019-03-02T03:45:00Z,30.4162,-87.8228,2.48,1.9,1111122 
NERRS,ioos:station:NOAA.NERRS:wkbfrwq:1,2019-03-02T05:45:00Z,30.4162,-87.8228,2.42,1.8,1111122 
NERRS,ioos:station:NOAA.NERRS:wkbfrwq:1,2019-03-02T07:45:00Z,30.4162,-87.8228,2.25,1.6,1111122 
NERRS,ioos:station:NOAA.NERRS:wkbfrwq:1,2019-03-02T09:45:00Z,30.4162,-87.8228,2.16,1.4,1111122 
NERRS,ioos:station:NOAA.NERRS:wkbfrwq:1,2019-03-02T10:45:00Z,30.4162,-87.8228,2.14,1.3,1111122 
NERRS,ioos:station:NOAA.NERRS:wkbfrwq:1,2019-03-02T11:45:00Z,30.4162,-87.8228,2.12,1.2,1111122 
NERRS,ioos:station:NOAA.NERRS:wkbfrwq:1,2019-03-02T12:45:00Z,30.4162,-87.8228,2.09,1.2,1111122 
NERRS,ioos:station:NOAA.NERRS:wkbfrwq:1,2019-03-02T13:45:00Z,30.4162,-87.8228,2.1,1.3,1111122 
NERRS,ioos:station:NOAA.NERRS:wkbfrwq:1,2019-03-02T14:45:00Z,30.4162,-87.8228,2.13,1.7,1111122 
NERRS,ioos:station:NOAA.NERRS:wkbfrwq:1,2019-03-02T15:45:00Z,30.4162,-87.8228,2.19,1.7,1111122 
NERRS,ioos:station:NOAA.NERRS:wkbfrwq:1,2019-03-02T16:45:00Z,30.4162,-87.8228,2.25,1.7,1111122 
NERRS,ioos:station:NOAA.NERRS:wkbfrwq:1,2019-03-02T17:45:00Z,30.4162,-87.8228,2.32,1.8,1111122 
NERRS,ioos:station:NOAA.NERRS:wkbfrwq:1,2019-03-02T18:45:00Z,30.4162,-87.8228,2.36,2.1,1111122 
NERRS,ioos:station:NOAA.NERRS:wkbfrwq:1,2019-03-02T19:45:00Z,30.4162,-87.8228,2.4,2.0,1111122 
NERRS,ioos:station:NOAA.NERRS:wkbfrwq:1,2019-03-02T20:45:00Z,30.4162,-87.8228,2.43,1.7,1111122 
NERRS,ioos:station:NOAA.NERRS:wkbfrwq:1,2019-03-02T21:45:00Z,30.4162,-87.8228,2.45,1.7,1111122 
NERRS,ioos:station:NOAA.NERRS:wkbfrwq:1,2019-03-02T22:45:00Z,30.4162,-87.8228,2.49,1.8,1111122 
NERRS,ioos:station:NOAA.NERRS:wkbfrwq:1,2019-03-02T23:45:00Z,30.4162,-87.8228,2.48,1.8,1111122 
NERRS,ioos:station:NOAA.NERRS:wkbfrwq:1,2019-03-03T00:15:00Z,30.4162,-87.8228,2.5,1.8,1111122 
NERRS,ioos:station:NOAA.NERRS:wkbfrwq:1,2019-03-03T01:45:00Z,30.4162,-87.8228,2.51,2.0,1111122 
NERRS,ioos:station:NOAA.NERRS:wkbfrwq:1,2019-03-03T02:45:00Z,30.4162,-87.8228,2.52,2.3,1111122 
NERRS,ioos:station:NOAA.NERRS:wkbfrwq:1,2019-03-03T03:45:00Z,30.4162,-87.8228,2.49,1.9,1111122 
NERRS,ioos:station:NOAA.NERRS:wkbfrwq:1,2019-03-03T04:45:00Z,30.4162,-87.8228,2.41,1.5,1111122 
NERRS,ioos:station:NOAA.NERRS:wkbfrwq:1,2019-03-03T05:45:00Z,30.4162,-87.8228,2.37,1.4,1111122 
NERRS,ioos:station:NOAA.NERRS:wkbfrwq:1,2019-03-03T06:45:00Z,30.4162,-87.8228,2.32,1.1,1111122 
NERRS,ioos:station:NOAA.NERRS:wkbfrwq:1,2019-03-03T07:45:00Z,30.4162,-87.8228,2.25,1.0,1111122 
NERRS,ioos:station:NOAA.NERRS:wkbfrwq:1,2019-03-03T08:45:00Z,30.4162,-87.8228,2.18,0.8,1111122 
NERRS,ioos:station:NOAA.NERRS:wkbfrwq:1,2019-03-03T10:45:00Z,30.4162,-87.8228,2.11,0.8,1111122 
NERRS,ioos:station:NOAA.NERRS:wkbfrwq:1,2019-03-03T11:45:00Z,30.4162,-87.8228,2.09,0.9,1111122 
NERRS,ioos:station:NOAA.NERRS:wkbfrwq:1,2019-03-03T12:45:00Z,30.4162,-87.8228,2.08,0.9,1111122 
NERRS,ioos:station:NOAA.NERRS:wkbfrwq:1,2019-03-03T13:45:00Z,30.4162,-87.8228,2.07,1.1,1111122 
NERRS,ioos:station:NOAA.NERRS:wkbfrwq:1,2019-03-03T14:45:00Z,30.4162,-87.8228,2.1,2.2,1111122 
NERRS,ioos:station:NOAA.NERRS:wkbfrwq:1,2019-03-03T15:45:00Z,30.4162,-87.8228,2.18,1.6,1111122 
NERRS,ioos:station:NOAA.NERRS:wkbfrwq:1,2019-03-03T16:45:00Z,30.4162,-87.8228,2.28,1.8,1111122 
NERRS,ioos:station:NOAA.NERRS:wkbfrwq:1,2019-03-03T17:45:00Z,30.4162,-87.8228,2.34,2.0,1111122 
NERRS,ioos:station:NOAA.NERRS:wkbfrwq:1,2019-03-03T18:45:00Z,30.4162,-87.8228,2.44,2.1,1111122 
NERRS,ioos:station:NOAA.NERRS:wkbfrwq:1,2019-03-03T19:45:00Z,30.4162,-87.8228,2.52,2.6,1111122 
NERRS,ioos:station:NOAA.NERRS:wkbfrwq:1,2019-03-03T20:45:00Z,30.4162,-87.8228,2.6,2.7,1111122 
NERRS,ioos:station:NOAA.NERRS:wkbfrwq:1,2019-03-03T21:45:00Z,30.4162,-87.8228,2.67,2.9,1111122 
NERRS,ioos:station:NOAA.NERRS:wkbfrwq:1,2019-03-03T22:45:00Z,30.4162,-87.8228,2.6,2.6,1111122 
NERRS,ioos:station:NOAA.NERRS:wkbfrwq:1,2019-03-04T00:45:00Z,30.4162,-87.8228,2.51,2.2,1111122 
NERRS,ioos:station:NOAA.NERRS:wkbfrwq:1,2019-03-04T01:45:00Z,30.4162,-87.8228,2.45,1.6,1111122 
NERRS,ioos:station:NOAA.NERRS:wkbfrwq:1,2019-03-04T02:45:00Z,30.4162,-87.8228,2.47,1.8,1111122 
NERRS,ioos:station:NOAA.NERRS:wkbfrwq:1,2019-03-04T04:45:00Z,30.4162,-87.8228,2.42,1.5,1111122 
NERRS,ioos:station:NOAA.NERRS:wkbfrwq:1,2019-03-04T05:45:00Z,30.4162,-87.8228,2.35,1.1,1111122 
NERRS,ioos:station:NOAA.NERRS:wkbfrwq:1,2019-03-04T06:45:00Z,30.4162,-87.8228,2.3,1.1,1111122 
NERRS,ioos:station:NOAA.NERRS:wkbfrwq:1,2019-03-04T07:45:00Z,30.4162,-87.8228,2.29,1.0,1111122 
NERRS,ioos:station:NOAA.NERRS:wkbfrwq:1,2019-03-04T09:45:00Z,30.4162,-87.8228,2.22,0.9,1111122 
NERRS,ioos:station:NOAA.NERRS:wkbfrwq:1,2019-03-04T10:45:00Z,30.4162,-87.8228,2.17,0.8,1111122 
NERRS,ioos:station:NOAA.NERRS:wkbfrwq:1,2019-03-04T11:45:00Z,30.4162,-87.8228,2.13,0.7,1111122 
NERRS,ioos:station:NOAA.NERRS:wkbfrwq:1,2019-03-04T12:45:00Z,30.4162,-87.8228,2.12,0.7,1111122 
NERRS,ioos:station:NOAA.NERRS:wkbfrwq:1,2019-03-04T13:45:00Z,30.4162,-87.8228,2.11,0.7,1111122 
NERRS,ioos:station:NOAA.NERRS:wkbfrwq:1,2019-03-04T14:45:00Z,30.4162,-87.8228,2.06,0.6,1111122 
NERRS,ioos:station:NOAA.NERRS:wkbfrwq:1,2019-03-04T15:45:00Z,30.4162,-87.8228,2.05,0.6,1111122 
NERRS,ioos:station:NOAA.NERRS:wkbfrwq:1,2019-03-04T16:45:00Z,30.4162,-87.8228,2.1,0.6,1111122 
NERRS,ioos:station:NOAA.NERRS:wkbfrwq:1,2019-03-04T17:45:00Z,30.4162,-87.8228,2.13,0.6,1111122 
NERRS,ioos:station:NOAA.NERRS:wkbfrwq:1,2019-03-04T19:45:00Z,30.4162,-87.8228,2.12,0.6,1111122 
NERRS,ioos:station:NOAA.NERRS:wkbfrwq:1,2019-03-04T20:45:00Z,30.4162,-87.8228,2.15,0.6,1111122 
NERRS,ioos:station:NOAA.NERRS:wkbfrwq:1,2019-03-04T21:45:00Z,30.4162,-87.8228,2.17,0.7,1111122 
NERRS,ioos:station:NOAA.NERRS:wkbfrwq:1,2019-03-04T22:45:00Z,30.4162,-87.8228,2.15,0.6,1111122 
NERRS,ioos:station:NOAA.NERRS:wkbfrwq:1,2019-03-04T23:45:00Z,30.4162,-87.8228,2.18,0.6,1111122 
NERRS,ioos:station:NOAA.NERRS:wkbfrwq:1,2019-03-05T00:45:00Z,30.4162,-87.8228,2.3,0.8,1111122 
NERRS,ioos:station:NOAA.NERRS:wkbfrwq:1,2019-03-05T01:45:00Z,30.4162,-87.8228,2.4,1.5,1111122 
NERRS,ioos:station:NOAA.NERRS:wkbfrwq:1,2019-03-05T02:45:00Z,30.4162,-87.8228,2.41,1.0,1111122 
NERRS,ioos:station:NOAA.NERRS:wkbfrwq:1,2019-03-05T04:45:00Z,30.4162,-87.8228,2.44,2.2,1111122 
NERRS,ioos:station:NOAA.NERRS:wkbfrwq:1,2019-03-05T05:45:00Z,30.4162,-87.8228,2.46,1.8,1111122 
NERRS,ioos:station:NOAA.NERRS:wkbfrwq:1,2019-03-05T06:45:00Z,30.4162,-87.8228,2.45,0.8,1111122 
NERRS,ioos:station:NOAA.NERRS:wkbfrwq:1,2019-03-05T07:45:00Z,30.4162,-87.8228,2.33,0.8,1111122 
NERRS,ioos:station:NOAA.NERRS:wkbfrwq:1,2019-03-05T08:45:00Z,30.4162,-87.8228,2.24,0.7,1111122 
NERRS,ioos:station:NOAA.NERRS:wkbfrwq:1,2019-03-05T09:45:00Z,30.4162,-87.8228,2.19,0.7,1111122 
NERRS,ioos:station:NOAA.NERRS:wkbfrwq:1,2019-03-05T10:45:00Z,30.4162,-87.8228,2.16,0.7,1111122 
NERRS,ioos:station:NOAA.NERRS:wkbfrwq:1,2019-03-05T11:45:00Z,30.4162,-87.8228,2.15,0.6,1111122 
NERRS,ioos:station:NOAA.NERRS:wkbfrwq:1,2019-03-05T12:45:00Z,30.4162,-87.8228,2.1,0.6,1111122 
NERRS,ioos:station:NOAA.NERRS:wkbfrwq:1,2019-03-05T13:45:00Z,30.4162,-87.8228,2.06,0.5,1111122 
NERRS,ioos:station:NOAA.NERRS:wkbfrwq:1,2019-03-05T14:45:00Z,30.4162,-87.8228,2.03,0.4,1111122 
NERRS,ioos:station:NOAA.NERRS:wkbfrwq:1,2019-03-05T15:45:00Z,30.4162,-87.8228,2.06,0.6,1111122 
NERRS,ioos:station:NOAA.NERRS:wkbfrwq:1,2019-03-05T16:45:00Z,30.4162,-87.8228,2.1,0.6,1111122 
NERRS,ioos:station:NOAA.NERRS:wkbfrwq:1,2019-03-05T17:45:00Z,30.4162,-87.8228,2.14,0.6,1111122 
NERRS,ioos:station:NOAA.NERRS:wkbfrwq:1,2019-03-05T18:45:00Z,30.4162,-87.8228,2.18,0.7,1111122 
NERRS,ioos:station:NOAA.NERRS:wkbfrwq:1,2019-03-05T19:45:00Z,30.4162,-87.8228,2.18,0.5,1111122 
NERRS,ioos:station:NOAA.NERRS:wkbfrwq:1,2019-03-05T20:45:00Z,30.4162,-87.8228,2.18,0.5,1111122 
NERRS,ioos:station:NOAA.NERRS:wkbfrwq:1,2019-03-05T22:45:00Z,30.4162,-87.8228,2.21,0.7,1111122 
NERRS,ioos:station:NOAA.NERRS:wkbfrwq:1,2019-03-05T23:45:00Z,30.4162,-87.8228,2.28,0.7,1111122 
NERRS,ioos:station:NOAA.NERRS:wkbfrwq:1,2019-03-06T01:45:00Z,30.4162,-87.8228,2.38,1.4,1111122 
NERRS,ioos:station:NOAA.NERRS:wkbfrwq:1,2019-03-06T02:45:00Z,30.4162,-87.8228,2.37,0.6,1111122 
NERRS,ioos:station:NOAA.NERRS:wkbfrwq:1,2019-03-06T04:45:00Z,30.4162,-87.8228,2.41,1.9,1111122 
NERRS,ioos:station:NOAA.NERRS:wkbfrwq:1,2019-03-06T06:45:00Z,30.4162,-87.8228,2.39,0.7,1111122 
NERRS,ioos:station:NOAA.NERRS:wkbfrwq:1,2019-03-06T07:45:00Z,30.4162,-87.8228,2.33,0.6,1111122 
NERRS,ioos:station:NOAA.NERRS:wkbfrwq:1,2019-03-06T08:45:00Z,30.4162,-87.8228,2.24,0.4,1111122 
NERRS,ioos:station:NOAA.NERRS:wkbfrwq:1,2019-03-06T09:45:00Z,30.4162,-87.8228,2.14,0.3,1111122 
NERRS,ioos:station:NOAA.NERRS:wkbfrwq:1,2019-03-06T10:45:00Z,30.4162,-87.8228,2.09,0.3,1111122 
NERRS,ioos:station:NOAA.NERRS:wkbfrwq:1,2019-03-06T11:45:00Z,30.4162,-87.8228,2.07,0.4,1111122 
NERRS,ioos:station:NOAA.NERRS:wkbfrwq:1,2019-03-06T12:45:00Z,30.4162,-87.8228,2.09,1.0,1111122 
NERRS,ioos:station:NOAA.NERRS:wkbfrwq:1,2019-03-06T13:45:00Z,30.4162,-87.8228,2.07,0.4,1111122 
NERRS,ioos:station:NOAA.NERRS:wkbfrwq:1,2019-03-06T14:45:00Z,30.4162,-87.8228,2.04,0.4,1111122 
NERRS,ioos:station:NOAA.NERRS:wkbfrwq:1,2019-03-06T15:45:00Z,30.4162,-87.8228,2.03,0.4,1111122 
NERRS,ioos:station:NOAA.NERRS:wkbfrwq:1,2019-03-06T16:45:00Z,30.4162,-87.8228,2.08,0.7,1111122 
NERRS,ioos:station:NOAA.NERRS:wkbfrwq:1,2019-03-06T17:45:00Z,30.4162,-87.8228,2.15,0.7,1111122 
NERRS,ioos:station:NOAA.NERRS:wkbfrwq:1,2019-03-06T18:45:00Z,30.4162,-87.8228,2.19,0.7,1111122 
NERRS,ioos:station:NOAA.NERRS:wkbfrwq:1,2019-03-06T19:45:00Z,30.4162,-87.8228,2.21,1.1,1111122 
NERRS,ioos:station:NOAA.NERRS:wkbfrwq:1,2019-03-06T20:45:00Z,30.4162,-87.8228,2.2,0.6,1111122 
NERRS,ioos:station:NOAA.NERRS:wkbfrwq:1,2019-03-06T21:45:00Z,30.4162,-87.8228,2.2,0.6,1111122 
NERRS,ioos:station:NOAA.NERRS:wkbfrwq:1,2019-03-06T22:45:00Z,30.4162,-87.8228,2.21,1.6,1111122 
NERRS,ioos:station:NOAA.NERRS:wkbfrwq:1,2019-03-06T23:45:00Z,30.4162,-87.8228,2.26,1.1,1111122 
NERRS,ioos:station:NOAA.NERRS:wkbfrwq:1,2019-03-07T00:45:00Z,30.4162,-87.8228,2.27,1.0,1111122 
NERRS,ioos:station:NOAA.NERRS:wkbfrwq:1,2019-03-07T01:45:00Z,30.4162,-87.8228,2.34,1.0,1111122 
NERRS,ioos:station:NOAA.NERRS:wkbfrwq:1,2019-03-07T02:45:00Z,30.4162,-87.8228,2.4,1.1,1111122 
NERRS,ioos:station:NOAA.NERRS:wkbfrwq:1,2019-03-07T03:45:00Z,30.4162,-87.8228,2.42,1.2,1111122 
NERRS,ioos:station:NOAA.NERRS:wkbfrwq:1,2019-03-07T05:45:00Z,30.4162,-87.8228,2.43,1.8,1111122 
NERRS,ioos:station:NOAA.NERRS:wkbfrwq:1,2019-03-07T06:45:00Z,30.4162,-87.8228,2.43,1.7,1111122 
NERRS,ioos:station:NOAA.NERRS:wkbfrwq:1,2019-03-07T07:45:00Z,30.4162,-87.8228,2.39,1.6,1111122 
NERRS,ioos:station:NOAA.NERRS:wkbfrwq:1,2019-03-07T08:45:00Z,30.4162,-87.8228,2.33,1.5,1111122 
NERRS,ioos:station:NOAA.NERRS:wkbfrwq:1,2019-03-07T09:45:00Z,30.4162,-87.8228,2.29,0.9,1111122 
NERRS,ioos:station:NOAA.NERRS:wkbfrwq:1,2019-03-07T10:45:00Z,30.4162,-87.8228,2.24,0.5,1111122 
NERRS,ioos:station:NOAA.NERRS:wkbfrwq:1,2019-03-07T11:45:00Z,30.4162,-87.8228,2.19,0.4,1111122 
NERRS,ioos:station:NOAA.NERRS:wkbfrwq:1,2019-03-07T12:45:00Z,30.4162,-87.8228,2.17,0.4,1111122 
NERRS,ioos:station:NOAA.NERRS:wkbfrwq:1,2019-03-07T13:45:00Z,30.4162,-87.8228,2.15,0.5,1111122 
NERRS,ioos:station:NOAA.NERRS:wkbfrwq:1,2019-03-07T14:45:00Z,30.4162,-87.8228,2.16,1.7,1111122 
NERRS,ioos:station:NOAA.NERRS:wkbfrwq:1,2019-03-07T15:45:00Z,30.4162,-87.8228,2.22,1.6,1111122 
NERRS,ioos:station:NOAA.NERRS:wkbfrwq:1,2019-03-07T16:45:00Z,30.4162,-87.8228,2.24,1.5,1111122 
NERRS,ioos:station:NOAA.NERRS:wkbfrwq:1,2019-03-07T17:45:00Z,30.4162,-87.8228,2.26,1.6,1111122 
NERRS,ioos:station:NOAA.NERRS:wkbfrwq:1,2019-03-07T18:45:00Z,30.4162,-87.8228,2.28,1.3,1111122 
NERRS,ioos:station:NOAA.NERRS:wkbfrwq:1,2019-03-07T19:45:00Z,30.4162,-87.8228,2.29,1.1,1111122 
NERRS,ioos:station:NOAA.NERRS:wkbfrwq:1,2019-03-07T20:45:00Z,30.4162,-87.8228,2.26,0.5,1111122 
NERRS,ioos:station:NOAA.NERRS:wkbfrwq:1,2019-03-07T21:45:00Z,30.4162,-87.8228,2.26,1.1,1111122 
NERRS,ioos:station:NOAA.NERRS:wkbfrwq:1,2019-03-07T22:45:00Z,30.4162,-87.8228,2.28,1.6,1111122 
NERRS,ioos:station:NOAA.NERRS:wkbfrwq:1,2019-03-07T23:45:00Z,30.4162,-87.8228,2.3,1.4,1111122 
NERRS,ioos:station:NOAA.NERRS:wkbfrwq:1,2019-03-08T00:45:00Z,30.4162,-87.8228,2.32,1.0,1111122 
NERRS,ioos:station:NOAA.NERRS:wkbfrwq:1,2019-03-08T01:45:00Z,30.4162,-87.8228,2.36,1.3,1111122 
NERRS,ioos:station:NOAA.NERRS:wkbfrwq:1,2019-03-08T02:45:00Z,30.4162,-87.8228,2.42,1.3,1111122 
NERRS,ioos:station:NOAA.NERRS:wkbfrwq:1,2019-03-08T03:45:00Z,30.4162,-87.8228,2.46,1.4,1111122 
NERRS,ioos:station:NOAA.NERRS:wkbfrwq:1,2019-03-08T04:45:00Z,30.4162,-87.8228,2.47,1.7,1111122 
NERRS,ioos:station:NOAA.NERRS:wkbfrwq:1,2019-03-08T05:45:00Z,30.4162,-87.8228,2.46,1.6,1111122 
NERRS,ioos:station:NOAA.NERRS:wkbfrwq:1,2019-03-08T06:45:00Z,30.4162,-87.8228,2.47,1.8,1111122 
NERRS,ioos:station:NOAA.NERRS:wkbfrwq:1,2019-03-08T07:45:00Z,30.4162,-87.8228,2.51,1.7,1111122 
NERRS,ioos:station:NOAA.NERRS:wkbfrwq:1,2019-03-08T08:45:00Z,30.4162,-87.8228,2.5,1.8,1111122 
NERRS,ioos:station:NOAA.NERRS:wkbfrwq:1,2019-03-08T09:45:00Z,30.4162,-87.8228,2.41,1.3,1111122 
NERRS,ioos:station:NOAA.NERRS:wkbfrwq:1,2019-03-08T10:45:00Z,30.4162,-87.8228,2.34,1.4,1111122 
NERRS,ioos:station:NOAA.NERRS:wkbfrwq:1,2019-03-08T11:45:00Z,30.4162,-87.8228,2.33,1.4,1111122 
NERRS,ioos:station:NOAA.NERRS:wkbfrwq:1,2019-03-08T12:45:00Z,30.4162,-87.8228,2.36,1.6,1111122 
NERRS,ioos:station:NOAA.NERRS:wkbfrwq:1,2019-03-08T13:45:00Z,30.4162,-87.8228,2.35,0.7,1111122 
NERRS,ioos:station:NOAA.NERRS:wkbfrwq:1,2019-03-08T15:45:00Z,30.4162,-87.8228,2.37,1.5,1111122 
NERRS,ioos:station:NOAA.NERRS:wkbfrwq:1,2019-03-08T16:45:00Z,30.4162,-87.8228,2.44,1.3,1111122 
NERRS,ioos:station:NOAA.NERRS:wkbfrwq:1,2019-03-08T17:45:00Z,30.4162,-87.8228,2.44,1.5,1111122 
NERRS,ioos:station:NOAA.NERRS:wkbfrwq:1,2019-03-08T18:45:00Z,30.4162,-87.8228,2.45,1.3,1111122 
NERRS,ioos:station:NOAA.NERRS:wkbfrwq:1,2019-03-08T19:45:00Z,30.4162,-87.8228,2.47,1.2,1111122 
NERRS,ioos:station:NOAA.NERRS:wkbfrwq:1,2019-03-08T20:45:00Z,30.4162,-87.8228,2.44,1.5,1111122 
NERRS,ioos:station:NOAA.NERRS:wkbfrwq:1,2019-03-08T21:45:00Z,30.4162,-87.8228,2.4,1.2,1111122 
NERRS,ioos:station:NOAA.NERRS:wkbfrwq:1,2019-03-08T22:45:00Z,30.4162,-87.8228,2.39,1.0,1111122 
NERRS,ioos:station:NOAA.NERRS:wkbfrwq:1,2019-03-08T23:45:00Z,30.4162,-87.8228,2.38,1.0,1111122 
NERRS,ioos:station:NOAA.NERRS:wkbfrwq:1,2019-03-09T00:45:00Z,30.4162,-87.8228,2.35,0.8,1111122 
NERRS,ioos:station:NOAA.NERRS:wkbfrwq:1,2019-03-09T01:45:00Z,30.4162,-87.8228,2.35,0.7,1111122 
NERRS,ioos:station:NOAA.NERRS:wkbfrwq:1,2019-03-09T02:45:00Z,30.4162,-87.8228,2.41,1.1,1111122 
NERRS,ioos:station:NOAA.NERRS:wkbfrwq:1,2019-03-09T03:45:00Z,30.4162,-87.8228,2.47,1.0,1111122 
NERRS,ioos:station:NOAA.NERRS:wkbfrwq:1,2019-03-09T04:45:00Z,30.4162,-87.8228,2.48,1.1,1111122 
NERRS,ioos:station:NOAA.NERRS:wkbfrwq:1,2019-03-09T05:45:00Z,30.4162,-87.8228,2.5,1.2,1111122 
NERRS,ioos:station:NOAA.NERRS:wkbfrwq:1,2019-03-09T06:45:00Z,30.4162,-87.8228,2.54,1.4,1111122 
NERRS,ioos:station:NOAA.NERRS:wkbfrwq:1,2019-03-09T07:45:00Z,30.4162,-87.8228,2.52,1.4,1111122 
NERRS,ioos:station:NOAA.NERRS:wkbfrwq:1,2019-03-09T08:45:00Z,30.4162,-87.8228,2.5,1.0,1111122 
NERRS,ioos:station:NOAA.NERRS:wkbfrwq:1,2019-03-09T09:45:00Z,30.4162,-87.8228,2.47,1.1,1111122 
NERRS,ioos:station:NOAA.NERRS:wkbfrwq:1,2019-03-09T10:45:00Z,30.4162,-87.8228,2.42,0.8,1111122 
NERRS,ioos:station:NOAA.NERRS:wkbfrwq:1,2019-03-09T11:45:00Z,30.4162,-87.8228,2.38,0.6,1111122 
NERRS,ioos:station:NOAA.NERRS:wkbfrwq:1,2019-03-09T12:45:00Z,30.4162,-87.8228,2.37,0.5,1111122 
NERRS,ioos:station:NOAA.NERRS:wkbfrwq:1,2019-03-09T13:45:00Z,30.4162,-87.8228,2.39,1.0,1111122 
NERRS,ioos:station:NOAA.NERRS:wkbfrwq:1,2019-03-09T14:45:00Z,30.4162,-87.8228,2.42,0.9,1111122 
NERRS,ioos:station:NOAA.NERRS:wkbfrwq:1,2019-03-09T15:45:00Z,30.4162,-87.8228,2.45,1.0,1111122 
NERRS,ioos:station:NOAA.NERRS:wkbfrwq:1,2019-03-09T16:45:00Z,30.4162,-87.8228,2.51,0.7,1111122 
NERRS,ioos:station:NOAA.NERRS:wkbfrwq:1,2019-03-09T17:45:00Z,30.4162,-87.8228,2.54,1.1,1111122 
NERRS,ioos:station:NOAA.NERRS:wkbfrwq:1,2019-03-09T18:45:00Z,30.4162,-87.8228,2.54,1.0,1111122 
NERRS,ioos:station:NOAA.NERRS:wkbfrwq:1,2019-03-09T19:45:00Z,30.4162,-87.8228,2.54,1.0,1111122 
NERRS,ioos:station:NOAA.NERRS:wkbfrwq:1,2019-03-09T20:45:00Z,30.4162,-87.8228,2.53,1.1,1111122 
NERRS,ioos:station:NOAA.NERRS:wkbfrwq:1,2019-03-09T21:45:00Z,30.4162,-87.8228,2.51,0.8,1111122 
NERRS,ioos:station:NOAA.NERRS:wkbfrwq:1,2019-03-09T22:45:00Z,30.4162,-87.8228,2.48,0.8,1111122 
NERRS,ioos:station:NOAA.NERRS:wkbfrwq:1,2019-03-09T23:45:00Z,30.4162,-87.8228,2.54,1.0,1111122 
NERRS,ioos:station:NOAA.NERRS:wkbfrwq:1,2019-03-10T00:45:00Z,30.4162,-87.8228,2.5,1.1,1111122 
NERRS,ioos:station:NOAA.NERRS:wkbfrwq:1,2019-03-10T01:45:00Z,30.4162,-87.8228,2.42,0.6,1111122 
NERRS,ioos:station:NOAA.NERRS:wkbfrwq:1,2019-03-10T02:45:00Z,30.4162,-87.8228,2.44,0.5,1111122 
NERRS,ioos:station:NOAA.NERRS:wkbfrwq:1,2019-03-10T03:45:00Z,30.4162,-87.8228,2.47,0.8,1111122 
NERRS,ioos:station:NOAA.NERRS:wkbfrwq:1,2019-03-10T04:45:00Z,30.4162,-87.8228,2.51,0.8,1111122 
NERRS,ioos:station:NOAA.NERRS:wkbfrwq:1,2019-03-10T05:45:00Z,30.4162,-87.8228,2.48,0.6,1111122 
NERRS,ioos:station:NOAA.NERRS:wkbfrwq:1,2019-03-10T06:45:00Z,30.4162,-87.8228,2.46,0.6,1111122 
NERRS,ioos:station:NOAA.NERRS:wkbfrwq:1,2019-03-10T07:45:00Z,30.4162,-87.8228,2.48,0.8,1111122 
NERRS,ioos:station:NOAA.NERRS:wkbfrwq:1,2019-03-10T08:45:00Z,30.4162,-87.8228,2.52,0.9,1111122 
NERRS,ioos:station:NOAA.NERRS:wkbfrwq:1,2019-03-10T09:45:00Z,30.4162,-87.8228,2.52,0.7,1111122 
NERRS,ioos:station:NOAA.NERRS:wkbfrwq:1,2019-03-10T10:45:00Z,30.4162,-87.8228,2.5,0.5,1111122 
NERRS,ioos:station:NOAA.NERRS:wkbfrwq:1,2019-03-10T11:45:00Z,30.4162,-87.8228,2.49,0.5,1111122 
NERRS,ioos:station:NOAA.NERRS:wkbfrwq:1,2019-03-10T12:45:00Z,30.4162,-87.8228,2.51,0.9,1111122 
NERRS,ioos:station:NOAA.NERRS:wkbfrwq:1,2019-03-10T13:45:00Z,30.4162,-87.8228,2.51,0.7,1111122 
NERRS,ioos:station:NOAA.NERRS:wkbfrwq:1,2019-03-10T14:45:00Z,30.4162,-87.8228,2.52,1.1,1111122 
NERRS,ioos:station:NOAA.NERRS:wkbfrwq:1,2019-03-10T15:45:00Z,30.4162,-87.8228,2.57,0.9,1111122 
NERRS,ioos:station:NOAA.NERRS:wkbfrwq:1,2019-03-10T16:45:00Z,30.4162,-87.8228,2.6,1.0,1111122 
NERRS,ioos:station:NOAA.NERRS:wkbfrwq:1,2019-03-10T17:45:00Z,30.4162,-87.8228,2.61,0.8,1111122 
NERRS,ioos:station:NOAA.NERRS:wkbfrwq:1,2019-03-10T18:45:00Z,30.4162,-87.8228,2.6,0.5,1111122 
NERRS,ioos:station:NOAA.NERRS:wkbfrwq:1,2019-03-10T19:45:00Z,30.4162,-87.8228,2.59,0.4,1111122 
NERRS,ioos:station:NOAA.NERRS:wkbfrwq:1,2019-03-10T20:45:00Z,30.4162,-87.8228,2.57,0.5,1111122 
NERRS,ioos:station:NOAA.NERRS:wkbfrwq:1,2019-03-10T21:45:00Z,30.4162,-87.8228,2.51,0.4,1111122 
NERRS,ioos:station:NOAA.NERRS:wkbfrwq:1,2019-03-11T04:45:00Z,30.4162,-87.8228,2.38,0.3,1111122 
NERRS,ioos:station:NOAA.NERRS:wkbfrwq:1,2019-03-11T05:45:00Z,30.4162,-87.8228,2.36,0.2,1111122 
NERRS,ioos:station:NOAA.NERRS:wkbfrwq:1,2019-03-11T06:45:00Z,30.4162,-87.8228,2.34,0.2,1111122 
NERRS,ioos:station:NOAA.NERRS:wkbfrwq:1,2019-03-11T08:45:00Z,30.4162,-87.8228,2.39,0.4,1111122 
NERRS,ioos:station:NOAA.NERRS:wkbfrwq:1,2019-03-11T09:45:00Z,30.4162,-87.8228,2.4,0.3,1111122 
NERRS,ioos:station:NOAA.NERRS:wkbfrwq:1,2019-03-11T10:45:00Z,30.4162,-87.8228,2.41,0.4,1111122 
NERRS,ioos:station:NOAA.NERRS:wkbfrwq:1,2019-03-11T11:45:00Z,30.4162,-87.8228,2.43,0.9,1111122 
NERRS,ioos:station:NOAA.NERRS:wkbfrwq:1,2019-03-11T12:45:00Z,30.4162,-87.8228,2.46,0.7,1111122 
NERRS,ioos:station:NOAA.NERRS:wkbfrwq:1,2019-03-11T13:45:00Z,30.4162,-87.8228,2.47,0.5,1111122 
NERRS,ioos:station:NOAA.NERRS:wkbfrwq:1,2019-03-11T14:45:00Z,30.4162,-87.8228,2.49,0.8,1111122 
NERRS,ioos:station:NOAA.NERRS:wkbfrwq:1,2019-03-11T15:45:00Z,30.4162,-87.8228,2.54,0.7,1111122 
NERRS,ioos:station:NOAA.NERRS:wkbfrwq:1,2019-03-11T16:45:00Z,30.4162,-87.8228,2.57,0.6,1111122 
NERRS,ioos:station:NOAA.NERRS:wkbfrwq:1,2019-03-11T17:45:00Z,30.4162,-87.8228,2.59,0.6,1111122 
NERRS,ioos:station:NOAA.NERRS:wkbfrwq:1,2019-03-11T18:45:00Z,30.4162,-87.8228,2.61,0.5,1111122 
NERRS,ioos:station:NOAA.NERRS:wkbfrwq:1,2019-03-11T19:45:00Z,30.4162,-87.8228,2.6,0.6,1111122 
NERRS,ioos:station:NOAA.NERRS:wkbfrwq:1,2019-03-11T20:45:00Z,30.4162,-87.8228,2.58,0.5,1111122 
NERRS,ioos:station:NOAA.NERRS:wkbfrwq:1,2019-03-11T21:45:00Z,30.4162,-87.8228,2.54,0.6,1111122 
NERRS,ioos:station:NOAA.NERRS:wkbfrwq:1,2019-03-11T22:45:00Z,30.4162,-87.8228,2.49,0.3,1111122 
NERRS,ioos:station:NOAA.NERRS:wkbfrwq:1,2019-03-11T23:45:00Z,30.4162,-87.8228,2.45,0.4,1111122 
NERRS,ioos:station:NOAA.NERRS:wkbfrwq:1,2019-03-12T00:45:00Z,30.4162,-87.8228,2.42,0.3,1111122 
NERRS,ioos:station:NOAA.NERRS:wkbfrwq:1,2019-03-12T02:45:00Z,30.4162,-87.8228,2.24,0.3,1111122 
NERRS,ioos:station:NOAA.NERRS:wkbfrwq:1,2019-03-12T03:45:00Z,30.4162,-87.8228,2.23,0.2,1111122 
NERRS,ioos:station:NOAA.NERRS:wkbfrwq:1,2019-03-12T04:45:00Z,30.4162,-87.8228,2.28,0.3,1111122 
NERRS,ioos:station:NOAA.NERRS:wkbfrwq:1,2019-03-12T05:45:00Z,30.4162,-87.8228,2.24,0.2,1111122 
NERRS,ioos:station:NOAA.NERRS:wkbfrwq:1,2019-03-12T06:45:00Z,30.4162,-87.8228,2.17,0.1,1111122 
NERRS,ioos:station:NOAA.NERRS:wkbfrwq:1,2019-03-12T07:45:00Z,30.4162,-87.8228,2.15,0.1,1111122 
NERRS,ioos:station:NOAA.NERRS:wkbfrwq:1,2019-03-12T08:45:00Z,30.4162,-87.8228,2.2,0.2,1111122 
NERRS,ioos:station:NOAA.NERRS:wkbfrwq:1,2019-03-12T09:45:00Z,30.4162,-87.8228,2.23,0.2,1111122 
NERRS,ioos:station:NOAA.NERRS:wkbfrwq:1,2019-03-12T10:45:00Z,30.4162,-87.8228,2.22,0.2,1111122 